Theta_e
312 313 312 314 315 316 316 316 315 315 316 317 318 319 319 319 321 322 323 328 335 341 347 345 344 343 342 340 338 336 336 337 336 337 337 337 338 338 340 339 340 341 342
311 310 310 311 313 314 315 315 314 314 314 314 315 317 317 317 318 321 325 329 336 338 343 345 343 340 338 339 338 338 338 338 337 334 336 334 335 335 337 337 336 336 335
310 310 310 311 312 314 315 315 314 314 314 314 313 315 315 316 325 330 331 332 333 337 341 341 340 340 337 336 336 338 337 337 337 336 333 334 334 333 334 334 335 336 335
311 310 311 311 312 314 313 313 313 313 312 311 312 314 317 321 322 324 328 329 332 335 340 340 338 338 337 338 337 336 334 333 332 333 334 334 334 334 335 335 335 334 334
313 310 311 312 314 313 312 311 312 312 310 311 314 313 314 314 316 322 324 326 328 329 332 335 335 334 334 334 333 332 330 328 327 327 327 328 329 330 332 332 333 334 335
312 311 312 312 314 314 311 310 310 313 310 309 312 310 307 308 308 309 314 322 325 326 326 327 328 329 330 329 327 327 326 324 323 322 322 322 324 325 326 327 327 329 331
311 311 312 314 315 313 311 308 308 312 307 308 311 312 311 308 308 307 309 313 322 323 322 321 321 322 323 323 321 321 321 321 320 319 318 318 318 320 320 321 321 322 323
311 313 312 311 312 310 306 305 304 307 306 306 306 309 304 307 310 305 307 312 318 320 320 320 319 318 318 318 319 317 317 318 318 318 316 316 317 318 318 318 318 319 319
311 311 310 309 309 307 304 304 303 303 301 304 304 305 300 298 302 305 304 305 313 313 316 317 317 315 314 313 316 316 315 314 314 315 315 315 316 316 316 316 316 316 317
309 309 308 307 306 305 305 304 303 302 303 300 303 303 302 301 297 298 304 303 306 311 314 313 313 311 310 309 312 315 317 315 314 314 314 315 315 315 315 315 314 314 315
307 308 306 306 305 304 305 305 303 302 301 300 299 300 301 300 298 297 294 297 302 304 310 311 309 304 306 305 308 312 317 317 316 315 313 313 314 315 315 315 314 314 314
305 307 305 305 305 304 303 303 304 303 302 301 300 299 298 297 296 296 295 296 296 301 303 308 304 303 303 304 307 313 314 315 314 316 314 313 314 314 315 315 315 315 314
303 305 305 305 305 305 305 304 304 303 302 302 301 299 299 298 298 297 296 294 294 298 300 303 302 303 303 303 306 314 311 312 313 314 314 313 313 313 314 314 315 314 313
302 304 307 305 305 305 306 307 303 303 302 302 301 300 298 297 296 297 296 293 290 293 296 297 300 301 301 302 306 310 306 308 311 311 312 312 312 313 313 313 313 313 313
304 305 304 303 303 303 303 303 302 304 304 303 302 301 298 297 296 295 295 296 293 289 291 297 296 302 301 302 303 307 305 308 308 308 309 309 310 311 311 311 312 312 312
303 304 302 301 301 302 303 303 302 303 304 303 301 301 299 297 296 295 295 295 294 293 292 295 297 298 300 301 303 305 304 306 306 306 307 308 309 308 309 309 311 311 311
303 303 302 300 300 300 301 303 304 303 303 303 303 301 301 299 296 295 295 295 295 294 293 295 295 298 299 300 301 302 303 303 303 305 306 307 308 308 307 307 307 307 308
302 304 302 300 299 299 299 300 301 303 302 301 301 302 301 300 299 297 295 296 295 295 294 294 296 297 298 300 300 300 301 302 302 303 304 305 305 305 306 305 306 306 307
302 303 301 300 299 299 298 299 299 300 300 301 302 301 301 300 300 298 297 295 295 295 294 293 294 296 297 298 299 300 300 300 301 302 301 302 303 303 303 304 304 305 305
302 302 301 300 300 299 298 298 299 299 299 299 300 301 301 301 300 300 298 297 296 295 296 294 294 295 295 298 297 296 296 298 297 298 300 300 301 301 301 301 302 303 304
304 302 302 300 300 298 297 298 298 299 298 299 299 300 302 303 307 306 300 300 299 298 298 296 294 294 295 295 294 295 293 295 296 297 296 298 297 298 299 300 301 301 301
303 302 302 301 300 298 299 301 303 299 299 298 298 299 299 302 302 305 306 307 305 301 298 296 295 294 295 294 295 294 292 291 289 296 294 293 297 297 298 300 299 300 301
302 301 301 301 301 302 300 300 302 302 300 300 298 297 299 300 302 300 301 300 300 299 299 299 295 296 294 295 295 293 292 292 291 293 293 291 297 295 298 298 298 299 303
302 302 302 302 301 301 300 299 301 304 302 302 303 300 300 301 300 300 300 299 299 299 299 298 297 297 297 297 296 295 294 293 293 294 296 291 295 294 298 300 298 301 301
301 302 302 303 302 303 300 299 300 302 302 302 302 301 300 300 298 297 299 298 298 299 299 299 299 298 297 296 297 296 292 290 289 291 295 294 294 294 296 298 300 301 300
302 302 303 303 302 303 300 299 300 302 302 302 302 300 297 298 296 295 299 298 296 296 297 298 297 297 296 297 297 296 294 290 290 289 294 291 292 294 291 298 299 302 302
Wind_Speed
4 3 4 4 4 5 4 5 5 5 6 7 6 5 5 5 5 3 3 10 8 7 7 8 8 6 5 5 3 2 3 4 5 4 3 3 3 5 7 3 2 7 9
4 4 4 4 5 5 5 4 4 5 6 6 7 6 6 5 6 5 3 4 9 7 8 9 7 4 5 3 2 2 4 7 5 4 4 3 2 2 2 4 3 3 2
5 5 4 5 5 5 6 5 5 4 5 7 7 6 4 4 3 5 5 5 5 7 2 5 7 7 5 5 4 9 10 12 11 4 3 3 5 4 6 7 7 6 4
5 4 4 5 5 4 4 5 4 5 6 6 5 6 4 6 8 8 8 7 6 6 14 16 13 9 10 13 13 14 15 14 15 16 15 13 9 8 9 9 10 10 11
6 4 4 4 5 4 5 5 2 3 6 6 6 6 7 8 9 8 11 11 11 9 6 15 15 15 13 14 14 15 15 16 15 15 13 12 13 13 10 9 9 9 12
6 5 4 4 4 4 6 6 3 4 3 5 4 8 9 9 9 9 9 9 10 11 10 10 8 10 19 18 16 16 14 14 14 14 14 13 13 11 12 11 11 13 12
6 5 4 5 5 6 5 7 3 5 9 7 2 3 5 10 12 10 8 8 10 9 10 8 7 6 8 17 16 15 14 14 14 13 13 13 12 11 11 12 11 11 10
5 4 4 4 5 5 9 10 6 3 5 8 3 1 3 4 6 10 9 9 11 8 8 9 9 9 8 7 10 13 13 12 11 11 10 10 10 11 10 10 10 11 11
5 5 6 5 5 5 5 7 7 7 4 7 12 4 3 3 2 4 8 7 10 7 7 5 9 10 8 7 7 7 9 9 10 9 9 9 10 9 9 9 10 10 11
5 5 5 5 5 4 6 5 6 5 5 6 3 6 7 3 3 3 4 6 6 7 8 7 7 7 8 5 9 11 10 8 8 9 9 10 10 10 9 8 9 9 11
5 5 5 4 5 4 3 5 6 6 5 4 4 3 4 5 5 5 3 5 4 5 5 7 5 6 7 6 6 8 13 12 11 10 9 9 10 11 11 10 10 10 10
3 5 4 3 4 4 4 4 3 6 4 5 5 6 5 3 3 3 2 1 3 3 2 4 5 5 6 8 10 14 15 14 14 13 11 11 12 14 14 14 13 12 12
3 4 3 4 3 3 1 3 4 4 3 4 4 4 4 4 2 1 2 2 2 2 3 2 6 6 7 7 8 15 16 15 14 12 8 9 13 14 16 16 15 14 13
1 3 2 4 4 5 4 3 3 3 4 4 5 5 4 4 3 2 1 2 2 2 2 3 3 4 6 6 10 16 9 15 16 15 12 11 12 13 15 16 15 15 14
1 2 4 4 4 5 5 4 3 4 4 4 4 3 3 2 3 2 2 1 1 2 2 3 3 4 6 6 9 8 9 14 15 15 14 13 13 14 14 14 14 13 14
1 4 4 4 4 4 4 4 3 3 5 2 2 2 2 1 2 2 2 2 1 2 2 3 3 4 7 7 9 8 9 14 15 18 16 16 13 15 15 14 13 12 15
0 2 3 3 3 4 4 3 3 3 4 2 1 2 2 1 1 2 1 0 1 2 3 3 3 4 5 8 8 7 8 8 8 16 20 19 14 14 13 11 11 11 12
2 2 2 3 3 3 3 3 2 2 2 3 4 4 5 3 4 4 2 2 3 2 3 8 4 4 4 8 7 9 8 7 9 13 22 22 19 15 14 15 14 13 12
3 2 2 2 1 1 1 1 1 2 3 3 4 5 6 5 7 5 4 3 3 2 3 4 6 3 4 3 7 7 7 8 7 17 21 19 16 11 13 14 14 13 11
4 3 4 3 2 2 3 3 3 3 4 3 4 5 6 5 7 7 6 7 4 5 4 5 6 6 3 6 4 6 9 8 9 10 12 13 10 15 15 14 15 14 13
4 3 3 3 3 3 3 4 4 4 5 6 5 5 5 8 12 8 5 7 6 4 6 7 8 5 5 6 8 6 8 9 8 8 9 7 8 8 10 11 11 13 15
4 3 4 4 5 4 7 8 7 4 5 5 6 6 4 11 9 14 12 11 4 6 8 5 5 5 7 7 5 7 8 8 6 6 7 10 9 9 8 7 12 16 17
3 4 4 4 5 6 9 11 10 5 6 7 8 4 6 6 9 7 10 8 8 10 9 6 6 6 7 7 7 8 9 8 8 9 8 7 7 8 7 7 13 15 15
3 3 4 5 4 6 11 12 11 7 7 9 8 5 7 8 8 7 6 7 8 8 6 3 4 7 7 9 7 7 9 8 8 8 8 5 5 7 9 7 9 7 11
2 4 3 5 5 9 10 12 8 6 7 8 5 4 6 7 8 4 6 6 8 8 4 3 8 11 11 10 8 6 6 6 6 4 4 3 7 10 8 7 4 6 10
3 2 4 4 7 9 11 10 5 4 5 4 5 4 4 5 8 6 4 6 7 6 6 9 11 8 7 7 10 5 5 6 6 4 1 3 5 4 4 4 4 6 6
Wind_Direction
38 13 10 5 360 351 355 343 340 333 325 328 329 332 325 326 316 309 307 314 331 315 228 202 186 172 153 138 126 62 30 12 360 355 359 349 340 342 335 327 288 307 307
25 17 4 357 352 346 339 337 332 333 327 331 323 316 312 314 316 321 320 318 331 310 256 217 180 164 165 96 108 338 338 347 319 334 338 336 325 287 239 289 355 10 99
26 12 1 351 341 340 342 343 345 344 341 340 326 319 320 329 12 32 28 23 1 340 271 143 101 103 81 50 61 75 66 47 25 331 315 329 324 292 283 285 280 270 257
26 10 1 352 340 352 352 354 357 339 348 348 340 8 41 45 39 37 43 37 24 39 78 87 82 77 95 79 76 74 67 58 52 50 44 34 11 344 340 325 308 293 281
20 20 4 346 345 356 8 358 348 348 354 348 6 42 45 44 38 37 40 40 39 41 47 75 77 72 77 78 82 76 68 60 52 46 44 42 34 28 25 18 356 321 287
16 9 352 354 352 9 11 4 5 351 4 339 350 53 54 47 40 31 28 33 37 47 53 59 63 72 70 64 59 60 57 56 49 42 38 30 32 26 22 23 18 11 16
11 5 354 360 357 20 5 6 5 354 13 359 5 24 54 52 45 34 25 26 43 42 45 41 42 57 65 64 57 52 47 49 49 40 37 27 21 16 15 13 6 11 358
2 9 13 18 15 21 30 23 22 359 14 21 30 340 14 3 30 31 30 22 36 33 50 53 57 49 49 52 54 47 40 35 34 35 25 20 11 9 9 16 8 8 2
3 20 29 34 38 36 38 39 18 35 12 27 34 35 23 11 338 5 27 28 27 34 36 37 49 43 35 33 23 19 34 25 22 13 7 1 355 351 356 1 357 354 356
10 35 36 40 51 25 38 40 32 31 39 30 14 39 61 23 39 12 11 16 16 26 34 46 44 38 28 20 13 349 352 355 353 351 343 336 336 333 329 331 337 343 345
7 37 48 38 51 38 28 47 41 42 44 59 42 17 33 44 54 52 23 347 352 27 38 42 30 23 9 4 359 347 335 333 321 314 318 319 318 318 315 309 311 319 328
3 25 32 49 54 50 30 21 55 61 61 61 60 51 52 42 19 31 23 320 315 323 358 36 19 10 3 354 352 346 336 322 318 298 294 297 303 303 300 295 291 298 312
5 347 18 27 25 16 29 32 50 58 82 99 93 77 68 54 24 34 16 353 329 328 331 1 2 6 358 346 348 347 351 339 327 313 296 299 305 302 299 290 283 285 297
335 313 67 39 28 33 32 45 47 61 70 80 84 74 76 63 54 55 56 7 345 327 315 311 316 346 345 339 328 336 335 336 341 345 341 327 317 311 306 296 282 276 280
1 85 91 60 27 27 30 47 54 60 78 75 82 92 82 67 65 69 85 126 61 336 301 308 305 313 328 329 326 331 329 321 340 336 332 327 325 317 308 305 286 269 270
45 113 86 66 39 34 31 32 49 39 78 59 64 62 74 82 53 45 74 146 165 178 277 253 278 298 311 315 317 330 322 329 326 330 322 317 322 322 314 312 311 286 275
53 119 102 78 58 42 28 34 45 37 61 14 340 336 338 340 343 308 324 8 151 197 256 283 254 294 290 304 311 314 313 312 320 326 326 312 314 315 306 310 316 315 311
242 211 148 95 62 54 41 44 28 2 357 331 327 320 300 301 279 251 260 341 294 260 277 301 305 309 287 308 300 306 315 313 317 319 323 312 308 314 309 310 308 304 304
221 212 215 152 122 35 340 318 306 323 309 309 313 298 296 301 287 283 285 285 270 282 250 268 293 284 292 309 320 308 304 308 310 316 317 304 302 307 311 307 306 300 295
200 211 207 226 211 253 269 283 291 291 299 299 288 288 288 286 277 277 271 264 269 290 294 266 285 293 291 310 297 305 310 311 309 313 312 309 312 319 315 312 305 298 296
214 233 211 235 251 261 262 263 281 294 310 315 302 290 293 294 304 280 238 264 256 281 297 298 293 290 304 312 315 323 304 307 303 309 315 316 311 309 307 307 297 299 293
196 198 225 241 267 266 266 269 262 269 271 261 281 294 293 298 305 311 286 278 255 287 277 278 287 286 292 295 300 309 306 308 320 318 321 309 303 301 301 297 297 300 295
178 221 243 253 264 270 269 273 267 258 263 271 268 255 287 292 297 300 307 310 303 304 264 248 264 285 300 305 301 301 307 304 302 300 311 295 306 298 296 301 303 305 314
202 231 255 259 273 273 269 273 280 272 267 263 280 246 256 280 294 320 309 313 309 296 292 250 236 291 294 294 286 293 294 299 292 299 314 286 318 307 314 308 309 317 341
220 240 253 284 280 286 271 271 277 282 280 281 295 262 262 294 297 334 324 308 307 317 333 296 300 291 285 299 301 300 306 305 302 284 301 282 316 314 314 307 317 312 320
236 270 292 268 272 279 291 298 286 282 293 317 335 331 304 315 324 328 309 313 313 333 339 334 325 317 299 304 314 294 289 290 294 291 272 285 309 311 310 308 301 320 323